Terminal Aerodrome Forecast
Issued by NWS

Home | Current Version | Previous Version | Text Only | Print | Product List | Glossary On
Versions: 1 2 3 4 5 6 7 8 9 10 11 12 13 14 15 16 17 18 19 20 21 22 23 24 25 26 27 28 29 30 31 32 33 34 35 36 37 38 39 40 41 42 43 44 45 46 47 48 49 50
000
FTUS43 KMKX 221428 AAB
TAFUES
TAF AMD
KUES 221428Z 2214/2312 VRB03KT 3SM BR BKN004
     FM221500 VRB03KT P6SM SCT009 BKN035
     FM221700 12004KT P6SM SCT030
     FM230300 08004KT 3SM BR SCT110
     FM230500 00000KT 2SM BR SCT070
     FM230800 00000KT 1/2SM FG BKN004=

USA.gov is the U.S. government's official web portal to all federal, state and local government web resources and services.